Regional Weather Roundup
Issued by NWS Charleston, SC

Home | Current Version | Previous Version | Text Only | Print | Product List | Glossary On
Versions: 1 2 3 4 5 6 7 8 9 10 11 12 13 14 15 16 17 18 19 20 21 22 23 24 25 26 27 28 29 30 31 32 33 34 35 36 37 38 39 40 41 42 43 44 45 46 47 48 49 50
000
ASUS42 KCHS 220725
RWRCHS

REGIONAL WEATHER ROUNDUP
NATIONAL WEATHER SERVICE CHARLESTON SC
200 AM EST WED FEB 22 2017

NOTE: "FAIR" INDICATES FEW OR NO CLOUDS BELOW 12,000 FEET WITH NO
SIGNIFICANT WEATHER AND/OR OBSTRUCTIONS TO VISIBILITY.

NOT ALL STATIONS ARE QUALITY CONTROLLED. USE DATA WITH CAUTION...
ESPECIALLY DEWPOINT OBSERVATIONS.

SCZ027-030-031-034>040-042>050-220800-
...SOUTHEAST SOUTH CAROLINA...

CITY           SKY/WX    TMP DP  RH WIND       PRES   REMARKS
N CHARLESTON   CLOUDY    59  56  89 E7        29.99F
WATERFRONT PRK   N/A     61  59  93 E7        29.99F
MOUNT PLEASANT FAIR      55  55 100 CALM      29.99F
JOHNS ISLAND   FAIR      59  57  94 CALM      29.98F
PINOPOLIS        N/A     61  57  88 E5        29.91F
MONCKS CORNER  FAIR      57  54  88 E3        29.98F
SUMMERVILLE    FAIR      55  55 100 CALM      29.99F
BEAUFORT MCAS  MOCLDY    64  60  87 E7        29.97F
BEAUFORT ARPT  PTSUNNY   63  59  88 E6        29.96F
HILTON HEAD IS CLOUDY    63  61  94 VRB5      29.96F
WALTERBORO     MOSUNNY   55  55 100 NE3       29.99F
ALLENDALE      PTSUNNY   63  59  88 E6        29.95F

...SOUTHERN MIDLANDS AND PEE DEE...

CITY           SKY/WX    TMP DP  RH WIND       PRES   REMARKS
GEORGETOWN     FAIR      54  52  94 CALM      30.02F
KINGSTREE      FAIR      55  52  88 E5        30.00F
ORANGEBURG     PTCLDY    57  55  93 E5        29.99F
BARNWELL       CLOUDY    63  59  88 E8        29.96F
AIKEN          CLOUDY    59  55  88 E7        30.00F
MANNING        FAIR      55  46  71 MISG      29.99F
COLUMBIA       CLOUDY    60  54  80 E8        29.98F
SUMTER         CLOUDY    54  51  91 NE3       29.98F
FLORENCE       MOCLDY    54  52  93 E9        30.02F
MYRTLE BEACH   NOT AVBL
N MYRTLE BEACH PTCLDY    62  55  77 E8        30.03F

$$

GAZ063-065-086>088-099>101-113>116-118-119-134>141-150-220800-
...SOUTHEAST GEORGIA...

CITY           SKY/WX    TMP DP  RH WIND       PRES   REMARKS
SAVANNAH ARPT  LGT RAIN  64  60  87 E5        29.95F
HUNTER AAF     RAIN      64  64 100 E8        29.91F
FORT STEWART   CLOUDY    62  60  95 CALM      29.90F
STATESBORO     PTCLDY    63  63 100 E5        29.93F
SYLVANIA       CLOUDY   N/A N/A N/A CALM      29.95F
CLAXTON        FAIR     N/A N/A N/A CALM      29.92F

...CSRA...CENTRAL AND FAR SOUTHEAST GEORGIA...

CITY           SKY/WX    TMP DP  RH WIND       PRES   REMARKS
THOMSON        CLOUDY    63  63 100 SE5       29.99F
AUGUSTA-BUSH   LGT RAIN  63  61  93 NE3       29.95F FOG
AUGUSTA-DANIEL LGT RAIN  61  58  90 E5        29.96F FOG
SWAINSBORO     CLOUDY    63  63 100 E7        29.93F
VIDALIA        CLOUDY    63  63 100 E3        29.92F
EASTMAN        FAIR      63  63  97 SE5       29.92F
HAZLEHURST     FAIR      65  64  96 SE3       29.89F
ALMA           CLOUDY    65  62  90 SE8       29.90F
WAYCROSS       MOCLDY    68  67  99 SE7       29.89F
JESUP          FAIR      64  59  82 CALM      29.91F
BAXLEY         FAIR      64  64 100 SE3       29.90F
BRUNSWICK      CLOUDY    68  63  83 SE6       29.92F
SAINT SIMONS   CLOUDY    66  61  84 SE7       29.91F

$$

SCZ027-028-034-036>038-045-046-048>050-GAZ119-141-220800-
...LAKE AND SUPPLEMENTAL COASTAL OBSERVATIONS...

STATION/POSITION TIME  TEMP    WIND        PRES    WAVE   SWELL
                       AIR SEA DIR/SP/G            HT/PER HT/PER/DIR
                 (UTC) (F)     (DEG/KT/KT) (MB)    (FT/S) (FT/S/D)
WINYAH BAY       0645   58      60/  6     1016.0F
LAKE MURRAY      0650   59      70/  5/  6 1014.9F
ACE BASIN NERRS  0630   62      50/  2     1015.0S
FORT PULASKI     0700   65 61  110/ 10/ 14 1014.0
SAPELO ISLAND    0700   65     140/  6     1013.0

$$

ANZ835-935-AMZ111-154-330-350-352-354-370-450-454-472-220800-
...C-MAN AND BUOY OBSERVATIONS...

STATION/POSITION TIME  TEMP    WIND        PRES    WAVE   SWELL
                       AIR SEA DIR/SP/G            HT/PER HT/PER/DIR
                 (UTC) (F)     (DEG/KT/KT) (MB)    (FT/S) (FT/S/D)
BUOY 41004       0650   70 69  120/ 16/ 19 1014.8F   4/ 5   2/120/12
BUOY 41008       0650   65 63  130/  4/  6 1013.2F   4/ 6   3/120/ 6
FOLLY BEACH CMAN 0700   61      50/  9/ 10 1015.9F
CAPERS NEARSHORE 0608   60 59   60/  6/ 10 1015.9
FRIPP NEARSHORE  0708   63 60  100/ 12/ 14 1014.0F


STATION/POSITION TIME  TEMP    WIND        PRES    WAVE   SWELL
                       AIR SEA DIR/SP/G            HT/PER HT/PER/DIR
                 (UTC) (F)     (DEG/KT/KT) (MB)    (FT/S) (FT/S/D)
5E ST. MARYS GA  0700      64                N/A     4/ 6
FRYING PAN BUOY  0710   68 69  130/ 12/ 14 1016.8
BUOY 41025       0650   63 74  150/  8/ 10 1019.2F   4/10   3/ 40/10
CAPE LOOKOUT NC  0700   61     100/  7/  8 1018.0F
BUOY 41002       0650   64 71   90/ 10/ 12 1018.0F   5/ 8   5/ 20/ 8
BUOY 41010       NOT AVBL
ST AUGUSTINE FL  0700   68 68  130/ 10/ 11 1012.8F


$$




USA.gov is the U.S. government's official web portal to all federal, state and local government web resources and services.